Regional Weather Roundup
Issued by NWS

Home | Current Version | Previous Version | Graphics & Text | Print | Product List | Glossary On
Versions: 1 2 3 4 5 6 7 8 9 10 11 12 13 14 15 16 17 18 19 20 21 22 23 24 25 26 27 28 29 30 31 32 33 34 35 36 37 38 39 40 41 42 43 44 45 46 47 48 49 50
000
ASUS43 KIND 280109
RWRIN

WEATHER ROUNDUP FOR INDIANA
NATIONAL WEATHER SERVICE INDIANAPOLIS IN
800 PM EST FRI FEB 27 2015

NOTE: "FAIR" INDICATES FEW OR NO CLOUDS BELOW 12,000 FEET WITH NO
SIGNIFICANT WEATHER AND/OR OBSTRUCTIONS TO VISIBILITY.

* - STATION DOES NOT REPORT WEATHER SUCH AS PRECIPITATION OR FOG.

+ - STATION NOT QUALITY CONTROLLED BY THE NATIONAL WEATHER SERVICE.
    USE DATA WITH CAUTION...ESPECIALLY DEWPOINT AND RELATIVE
    HUMIDITY OBSERVATIONS.

INZ001>003-010>013-019-020-280200-
NORTHWEST INDIANA

CITY           SKY/WX    TMP DP  RH WIND       PRES   REMARKS
KNOX *+          N/A      7 -20  28 CALM      30.63R
LA PORTE +     CLEAR      9  -2  62 SW7       30.63R WCI  -2
MICHIGAN CITY+ CLEAR     10  -8  44 SW7       30.64R WCI   0
MONTICELLO +   CLEAR      6  -2  68 CALM      30.64S
RENSSELAER +   CLEAR      7   0  72 W6        30.65R WCI  -3
VALPARAISO     CLEAR      5  -6  60 W8        30.63R WCI  -8

$$

LMZ046-743>745-280200-
SOUTHERN LAKE MICHIGAN

STATION/POSITION TIME  TEMP WIND        PRES
                       AIR  DIR/SP/G
                 (UTC) (F)  (DEG/KT/KT) (MB)
MICHIGAN CITY    0100   12  180/ 10/ 12   N/A

$$

INZ004-005-014>016-021>024-280200-
NORTH CENTRAL INDIANA

CITY           SKY/WX    TMP DP  RH WIND       PRES   REMARKS
ELKHART        PTCLDY    10  -6  48 W5        30.62R WCI   2
GOSHEN         CLEAR      9  -2  61 S3        30.61R
LOGANSPORT +   CLEAR      5  -4  66 W6        30.64S WCI  -6
PERU/GRISSOM   CLEAR      6  -3  67 W6        30.62R WCI  -4
ROCHESTER +    CLEAR     14   1  57 CALM      30.63R
SOUTH BEND     CLEAR     10  -3  55 SW7       30.63R WCI  -1
WARSAW +       CLEAR     12   3  67 SW5       30.61S WCI   4

$$

INZ006>009-017-018-025>027-280200-
NORTHEAST INDIANA

CITY           SKY/WX    TMP DP  RH WIND       PRES   REMARKS
ANGOLA *+      CLEAR      7  -2  66 CALM      30.59R
AUBURN +       CLEAR     14   1  57 CALM      30.62R
FORT WAYNE     PTCLDY     7   0  73 W3        30.63R
HUNTINGTON +   PTCLDY    13   1  59 CALM      30.62R

$$

INZ028-029-035-036-043>045-051>053-280200-
WEST CENTRAL INDIANA

CITY           SKY/WX    TMP DP  RH WIND       PRES   REMARKS
CRAWFORDSVL +  PTCLDY     5  -8  53 CALM      30.64R
GREENCASTLE +  MOCLDY    12  -6  44 CALM      30.64R
LAFAYETTE      CLEAR      8  -3  61 N3        30.66R
TERRE HAUTE    PTCLDY    11   0  61 NW5       30.66R WCI   3

$$

INZ030>032-037>040-046>048-054>057-064-065-280200-
CENTRAL INDIANA

CITY           SKY/WX    TMP DP  RH WIND       PRES   REMARKS
CP ATTERBURY + PTCLDY    12   0  57 CALM      30.65R
FRANKFORT +    PTCLDY     9  -2  62 CALM      30.65R
GREENWOOD *+   PTCLDY    12  -6  44 CALM      30.63R
INDIANAPOLIS   PTCLDY    12  -2  53 NW6       30.62R WCI   3
-EAGLE CREEK   PTCLDY    11  -1  58 NW5       30.63R WCI   3
KOKOMO *+      CLEAR      9  -2  61 W7        30.63S WCI  -3
MARION +       CLEAR      9   3  78 SW3       30.63R
MT COMFORT *+  CLEAR      5 -11  47 NE3       30.64R
SHELBYVILLE    PTCLDY    13   0  56 CALM      30.63R
ZIONSVILLE +   CLEAR      6  -3  65 CALM      30.63R

$$

INZ033-034-041-042-049-050-058-059-280200-
EAST CENTRAL INDIANA

CITY           SKY/WX    TMP DP  RH WIND       PRES   REMARKS
MUNCIE         CLEAR      8  -1  66 CALM      30.62R

$$

INZ060-061-067>069-081>083-085>088-280200-
SOUTHWEST INDIANA

CITY           SKY/WX    TMP DP  RH WIND       PRES   REMARKS
EVANSVILLE     CLOUDY    21   6  52 N8        30.66R WCI  11
HUNTINGBURG *+ CLOUDY    19   5  53 N6        30.65R WCI  11
WASHINGTON +   MOCLDY    15   3  57 NW5       30.65R WCI   8

$$

INZ062-063-066-070>080-084-089>092-280200-
SOUTH CENTRAL AND SOUTHEAST INDIANA

CITY           SKY/WX    TMP DP  RH WIND       PRES   REMARKS
BLOOMINGTON    PTCLDY    13   1  59 N5        30.63R WCI   5
NORTH VERNON + CLEAR     14   0  52 NE3       30.64R
SEYMOUR +      CLEAR     16   1  53 NE7       30.65R WCI   6

$$



USA.gov is the U.S. government's official web portal to all federal, state and local government web resources and services.